Vertical_Velocity
2 -0 -3 -3 -1 2 -4 -2 2 -2 3 -0 -1 -4 2 3 2 2 2 4 4 4 2 5 -1 1 1 0 2 2 -3 -3 3 -0 2 -0 3 1 5 -2 5 -5 8 3 6 1 4
1 -2 -1 -2 0 -2 -4 -1 4 1 0 -0 3 0 0 0 1 1 1 1 2 -2 4 0 1 1 -2 -4 4 -0 1 -1 -7 0 5 -1 5 -8 3 1 3 8 -0 -5 -8 4 4
-0 0 -2 -3 -1 3 -2 1 3 2 0 4 -1 2 1 -0 -1 1 1 -0 0 2 1 2 4 1 -1 -0 2 -3 0 -0 -1 -1 2 -2 6 2 2 -10 8 -6 2 -4 -3 1 1
-2 -0 -1 -2 -3 -1 -2 2 1 3 3 -2 2 1 -2 -0 2 4 3 3 2 2 3 1 1 1 -1 -2 -2 -3 -3 -2 0 2 5 -2 0 5 1 -1 -10 0 -5 -2 1 -4 -2
-3 -3 2 1 -2 -1 -0 0 2 -0 -2 0 -1 -2 1 3 3 1 2 2 2 0 2 1 -2 -0 -3 -0 -1 -2 -1 0 2 4 4 1 -10 -6 -3 -3 -2 -1 -6 -3 -2 2 -1
-1 0 -1 0 2 -1 0 -1 -1 1 2 -0 -0 2 3 4 1 1 1 1 1 2 1 0 1 -3 -1 0 0 2 3 5 6 1 -1 -3 -1 1 -1 -4 -3 1 1 1 1 -1 -1
-3 -1 -2 0 0 3 -1 0 1 1 -0 -0 -1 1 2 0 2 1 1 2 2 0 -0 2 -0 1 3 5 4 2 0 1 -0 -1 -2 -2 -4 -4 -1 1 -1 1 1 -0 3 2 1
-2 1 0 -0 1 -0 -0 1 -1 -1 -2 -1 2 3 2 2 3 2 2 3 1 1 1 -0 0 3 3 2 2 3 2 0 -0 -4 -3 0 1 2 1 -1 -1 -0 1 -0 -1 1 0
-3 1 2 1 1 0 1 0 -1 0 0 2 2 1 -1 -1 1 1 2 2 1 2 2 1 3 2 2 1 1 -0 -1 -2 -2 -2 -0 0 -1 -2 -1 -3 -1 3 1 -0 -1 0 1
-1 -1 1 0 1 1 0 -0 -1 -1 1 0 -0 -1 0 1 1 1 2 1 0 1 1 -2 -2 -1 0 -0 -1 -0 -0 -0 -2 -0 -1 -1 -1 0 -0 0 0 -0 1 0 0 1 1
-2 0 2 1 0 2 0 -0 0 -0 -0 0 1 1 2 3 3 2 1 1 1 -0 -2 -2 -1 -1 -0 0 -1 1 0 0 0 -1 -1 0 -0 1 0 0 -1 -1 -1 1 -0 0 1
-2 -1 2 1 1 2 -0 0 -1 -0 -1 0 0 2 1 2 1 1 -0 -2 -0 -1 -4 -2 -1 1 1 -1 -3 -3 -2 -2 -0 -1 -1 -1 0 1 1 -1 -3 -1 -1 -1 -1 -3 -2
-0 -0 1 0 1 2 1 1 0 -0 -0 0 1 2 3 2 1 1 -0 0 -1 -2 1 -2 -3 2 -2 -3 -2 -1 1 -0 -0 1 2 0 -1 -1 -1 0 -2 -0 -1 -4 -2 -2 -1
1 -1 3 0 1 2 3 1 0 -0 1 1 2 2 1 2 1 2 3 1 1 1 1 2 2 1 2 3 0 -1 -1 -2 -2 -3 -2 -2 -0 -1 0 1 -0 -1 -2 -2 -3 -1 2
2 -1 1 -0 0 2 3 1 2 0 0 0 1 -0 0 1 2 2 2 1 1 4 2 2 1 1 1 -0 -1 -0 -0 -2 -2 -1 -3 -2 -2 -2 -1 -1 -0 2 1 1 0 1 3
1 0 1 0 -1 1 2 1 1 0 -1 -0 -0 1 2 2 -0 0 2 1 0 -1 -0 0 1 1 -0 -1 -0 -1 -0 -1 -1 -1 -1 -1 -2 -2 -2 0 -0 -1 -1 -3 1 -3 1
-0 0 1 0 -3 0 1 2 -0 0 -0 -1 1 2 1 -0 1 -0 -1 0 -0 -0 -0 -0 -1 -1 -2 -2 -1 -2 -1 -0 1 -0 -1 -1 0 -2 -1 -0 -1 -1 -0 -0 -1 1 -2
1 -0 2 2 0 -1 -0 1 1 -0 -1 1 -2 2 1 1 0 -1 1 1 1 -1 -0 -1 -2 -2 -1 -1 -1 -1 -2 -0 -0 -1 -1 -1 2 -2 -0 -2 -1 -0 -3 -2 -4 -5 1
1 -0 -1 1 1 0 -0 -0 1 1 -1 -0 0 1 0 -0 -1 -1 1 -1 -0 -0 -1 -2 -2 0 -0 -1 -1 -1 -2 -2 -1 -1 -1 -2 -2 -1 -2 1 1 2 1 -1 -3 -2 8
3 0 -0 0 1 0 -0 0 0 2 1 2 1 1 -0 0 -0 -0 1 -1 -0 -0 -2 -3 -0 0 -0 -1 -2 -2 -2 -2 -3 -4 -1 -0 0 -2 -0 -0 -5 1 3 -2 -3 -1 -3
1 -0 -1 -1 2 2 1 0 0 1 1 1 1 -0 -1 0 0 -0 0 0 0 -1 -2 -2 -1 -1 -1 -1 -1 -0 -0 -1 -1 -2 -2 -2 -0 -3 2 -1 -5 -3 3 -0 -1 -3 -2
2 1 -0 -0 0 2 2 1 2 2 2 0 1 -0 -1 -0 0 -0 1 0 -1 -1 -0 -1 -2 -1 -1 -1 -2 -1 -1 -1 -2 -2 -4 -1 -5 -4 3 3 -3 -0 -2 2 1 -1 0
1 1 0 0 -1 3 1 2 2 1 2 -0 -1 -1 0 1 -0 0 -0 -1 -1 -0 -1 -1 -1 -0 1 -1 -2 -3 -2 -1 -0 -1 -1 -0 -4 -4 1 1 -1 0 0 1 3 1 -2
0 1 1 0 -0 0 1 1 0 2 1 -2 -1 -1 -1 -1 1 0 0 0 -0 -0 -1 -1 -2 -1 -2 -1 -1 -0 1 -2 -1 -0 -1 -3 -3 -4 -0 4 1 -4 -0 -0 1 3 -5
1 -0 0 1 1 0 2 1 2 0 0 -2 0 -2 0 2 2 2 1 0 -1 -0 -0 -1 -2 -1 -1 -0 1 -1 -2 1 2 2 -1 -2 -4 -8 -6 -2 2 13 -1 1 0 16 -1
2 -0 0 1 1 0 1 2 2 1 1 0 -0 0 0 -0 1 3 2 -1 -1 -1 -0 -2 -1 -2 -0 -0 0 -1 1 3 -0 -4 -5 -5 -4 -3 -2 -3 -6 -1 0 -2 -0 9 3
1 1 2 2 1 -0 1 1 2 1 1 1 1 1 -0 -1 -0 -0 1 -0 0 -0 0 -1 -2 2 -2 -1 1 2 4 -3 -1 -4 -7 -4 -2 -2 -2 -4 4 -0 -0 -2 -3 -9 -1
2 2 2 1 0 -1 0 1 1 0 0 0 2 0 -0 1 -1 -0 -1 -1 -2 2 -0 -1 -0 -3 -2 -1 -1 -2 2 -0 2 3 -8 -1 -9 -2 3 -3 -5 -2 -8 -3 1 3 -3
0 1 2 1 -0 -0 0 1 0 0 0 1 1 1 -0 -1 2 -1 -1 2 1 1 -0 -0 1 -1 -1 -1 -1 1 -0 -3 -1 4 3 -8 -7 -4 -1 4 -4 -6 -2 -2 -5 -9 -3
Height
5741 5741 5741 5741 5741 5741 5741 5741 5740 5740 5741 5744 5747 5751 5754 5756 5758 5761 5765 5769 5773 5779 5783 5788 5791 5794 5797 5799 5802 5802 5804 5805 5807 5809 5812 5814 5816 5818 5820 5821 5823 5824 5827 5828 5832 5831 5831
5738 5738 5739 5739 5739 5740 5741 5740 5740 5741 5743 5745 5749 5752 5754 5756 5760 5764 5769 5773 5778 5783 5787 5790 5793 5797 5800 5803 5805 5806 5808 5809 5810 5813 5815 5816 5819 5820 5822 5823 5824 5825 5828 5829 5831 5831 5830
5735 5735 5737 5737 5737 5739 5740 5740 5742 5744 5746 5748 5751 5753 5756 5760 5764 5768 5773 5777 5782 5787 5791 5794 5798 5801 5803 5805 5807 5809 5811 5813 5815 5816 5818 5819 5819 5823 5823 5824 5826 5828 5829 5829 5831 5830 5829
5733 5734 5735 5736 5737 5739 5740 5741 5742 5744 5747 5750 5752 5756 5761 5765 5769 5773 5778 5783 5787 5791 5795 5798 5801 5803 5806 5808 5810 5812 5813 5814 5816 5818 5819 5821 5822 5824 5824 5825 5826 5827 5827 5829 5827 5827 5828
5731 5733 5734 5735 5737 5738 5740 5741 5743 5746 5749 5752 5756 5761 5765 5769 5773 5778 5782 5786 5790 5794 5797 5800 5803 5806 5808 5810 5812 5813 5815 5816 5818 5820 5821 5823 5823 5824 5825 5825 5827 5827 5827 5827 5827 5827 5827
5730 5732 5734 5735 5736 5738 5740 5742 5744 5748 5752 5756 5761 5765 5769 5773 5777 5782 5786 5789 5793 5796 5800 5803 5805 5809 5811 5813 5814 5815 5816 5817 5818 5819 5821 5822 5823 5824 5825 5825 5826 5826 5826 5827 5827 5827 5826
5728 5730 5733 5734 5736 5737 5741 5743 5746 5751 5755 5760 5765 5769 5773 5777 5781 5786 5789 5793 5798 5800 5802 5805 5808 5810 5812 5813 5815 5816 5817 5818 5819 5819 5821 5822 5823 5823 5822 5823 5823 5824 5824 5825 5825 5825 5824
5726 5729 5732 5734 5735 5739 5742 5745 5750 5754 5759 5764 5768 5772 5777 5781 5785 5789 5793 5796 5800 5803 5805 5807 5810 5812 5814 5815 5816 5817 5818 5819 5819 5819 5820 5822 5822 5822 5822 5822 5822 5823 5823 5823 5823 5823 5821
5724 5728 5730 5732 5735 5740 5744 5748 5753 5757 5762 5767 5771 5776 5780 5783 5787 5791 5795 5798 5801 5804 5807 5809 5811 5812 5814 5815 5816 5816 5817 5817 5817 5818 5819 5820 5821 5821 5821 5821 5821 5821 5821 5821 5820 5819 5818
5723 5726 5729 5732 5735 5740 5745 5750 5755 5759 5764 5769 5773 5777 5781 5784 5790 5793 5797 5800 5803 5806 5809 5811 5812 5813 5814 5815 5815 5815 5816 5817 5817 5816 5817 5818 5818 5818 5818 5818 5818 5818 5817 5817 5816 5815 5814
5721 5725 5728 5731 5735 5740 5746 5751 5756 5761 5766 5770 5774 5778 5782 5787 5790 5794 5799 5801 5804 5807 5809 5811 5812 5813 5813 5815 5815 5815 5815 5814 5814 5815 5816 5816 5815 5815 5815 5815 5814 5814 5813 5812 5812 5811 5810
5718 5723 5726 5730 5734 5740 5747 5752 5757 5762 5766 5771 5775 5779 5784 5788 5792 5795 5798 5802 5804 5807 5806 5809 5810 5811 5812 5812 5811 5811 5812 5812 5812 5812 5811 5811 5810 5811 5811 5810 5810 5809 5808 5807 5807 5806 5806
5715 5721 5725 5729 5733 5739 5746 5751 5757 5761 5766 5771 5776 5780 5784 5788 5792 5795 5798 5801 5803 5803 5805 5807 5808 5808 5808 5808 5807 5808 5808 5808 5809 5808 5807 5806 5805 5805 5805 5805 5804 5804 5803 5803 5803 5802 5801
5713 5718 5722 5728 5732 5738 5744 5750 5756 5761 5766 5770 5775 5780 5784 5787 5791 5793 5796 5799 5800 5801 5802 5803 5803 5803 5804 5804 5804 5804 5804 5804 5804 5804 5803 5802 5802 5800 5800 5800 5800 5799 5799 5799 5797 5796 5796
5710 5715 5720 5725 5731 5736 5742 5748 5754 5759 5764 5769 5774 5778 5782 5785 5789 5791 5795 5796 5797 5797 5799 5799 5799 5800 5800 5801 5801 5801 5801 5801 5801 5801 5801 5800 5799 5798 5797 5797 5797 5796 5795 5794 5792 5790 5789
5709 5713 5718 5723 5728 5733 5739 5745 5751 5757 5762 5767 5771 5775 5779 5783 5786 5789 5791 5792 5793 5794 5795 5796 5796 5797 5797 5797 5798 5798 5798 5799 5799 5799 5798 5797 5797 5796 5795 5795 5794 5792 5791 5789 5786 5783 5780
5706 5711 5716 5720 5726 5731 5737 5742 5748 5754 5759 5764 5769 5773 5776 5779 5783 5786 5788 5789 5791 5792 5793 5794 5794 5794 5795 5795 5796 5796 5797 5798 5798 5797 5796 5795 5795 5794 5792 5791 5789 5787 5784 5782 5779 5777 5772
5702 5707 5712 5718 5722 5728 5734 5739 5745 5751 5756 5761 5765 5770 5773 5776 5780 5781 5784 5787 5789 5790 5791 5792 5792 5793 5794 5794 5794 5795 5795 5795 5795 5794 5794 5793 5791 5789 5788 5786 5784 5781 5778 5775 5772 5770 5768
5698 5704 5710 5715 5720 5725 5730 5737 5742 5747 5753 5758 5762 5766 5769 5772 5775 5779 5782 5784 5786 5788 5789 5790 5791 5791 5792 5793 5794 5794 5793 5793 5792 5792 5791 5790 5789 5787 5784 5784 5780 5776 5772 5768 5764 5761 5759
5693 5701 5707 5712 5717 5722 5727 5733 5739 5744 5749 5754 5759 5762 5765 5769 5772 5776 5779 5782 5784 5785 5786 5788 5788 5790 5791 5792 5792 5792 5791 5790 5790 5789 5788 5786 5784 5783 5781 5777 5774 5771 5765 5759 5755 5752 5746
5690 5696 5703 5708 5713 5719 5725 5730 5735 5741 5746 5751 5754 5758 5761 5765 5769 5772 5776 5779 5780 5782 5784 5785 5787 5788 5789 5789 5789 5788 5787 5787 5786 5784 5783 5781 5779 5777 5774 5770 5767 5765 5758 5751 5747 5743 5739
5686 5693 5699 5705 5710 5717 5722 5727 5733 5737 5742 5747 5751 5755 5758 5762 5766 5769 5772 5775 5777 5779 5781 5783 5785 5786 5786 5786 5786 5785 5784 5783 5782 5780 5777 5774 5770 5767 5767 5759 5758 5758 5750 5744 5738 5737 5734
5680 5688 5695 5701 5706 5713 5720 5724 5729 5734 5740 5743 5747 5751 5755 5759 5762 5765 5768 5771 5773 5776 5778 5779 5781 5782 5782 5783 5782 5780 5779 5778 5777 5775 5772 5767 5761 5757 5756 5751 5749 5749 5741 5734 5732 5731 5726
5675 5682 5690 5697 5703 5709 5716 5721 5726 5731 5735 5740 5745 5749 5752 5755 5758 5762 5764 5767 5769 5772 5774 5775 5776 5777 5778 5777 5776 5775 5774 5773 5771 5769 5764 5759 5753 5748 5742 5739 5739 5742 5729 5726 5724 5724 5719
5670 5677 5684 5692 5699 5705 5711 5717 5722 5727 5731 5737 5741 5746 5749 5752 5755 5758 5761 5763 5765 5767 5770 5771 5771 5771 5771 5771 5771 5770 5769 5769 5767 5764 5758 5751 5745 5738 5733 5726 5727 5732 5724 5721 5716 5716 5711
5665 5672 5680 5686 5693 5700 5706 5712 5717 5722 5727 5732 5737 5741 5745 5749 5752 5755 5757 5759 5761 5762 5764 5765 5765 5765 5765 5765 5765 5764 5762 5760 5758 5755 5751 5744 5738 5733 5725 5720 5718 5717 5711 5709 5705 5703 5698
5659 5666 5674 5681 5687 5694 5700 5706 5711 5717 5722 5727 5732 5736 5740 5743 5746 5749 5752 5754 5756 5757 5758 5758 5758 5758 5758 5757 5756 5755 5754 5752 5750 5746 5741 5736 5729 5726 5718 5714 5714 5709 5705 5700 5696 5693 5685
5652 5660 5668 5675 5681 5687 5694 5700 5706 5711 5716 5721 5726 5730 5734 5736 5739 5742 5744 5747 5748 5749 5750 5751 5751 5750 5749 5749 5747 5745 5744 5742 5740 5737 5733 5730 5720 5717 5711 5710 5707 5702 5697 5693 5689 5681 5675
5645 5653 5660 5668 5674 5680 5687 5693 5699 5704 5709 5714 5719 5722 5726 5729 5732 5734 5736 5738 5739 5740 5742 5742 5742 5741 5740 5739 5737 5735 5734 5732 5728 5724 5723 5721 5715 5708 5704 5704 5697 5691 5687 5682 5677 5670 5664